Home   Weather   Berlevåg   Past weeks
Flag for Norway

Past Weather in Berlevåg, Norway — Yesterday and Last 2 Weeks

Now
20 °F

Cold.


Feels Like: N/A
Forecast: 30 / 27 °F
Wind: N/A

Location: Berlevag

Current Time: Mar 31, 2020 at 3:40:07 am

Latest Report: Mar 31, 2020 at 2:00 am


Visibility: N/A

Pressure: 29.81 "Hg

Humidity: 75%

Dew Point: 14 °F

Location of BerlevågLocation

Past Weather in Berlevåg — Graph

°F

Berlevåg Temperature Yesterday

Maximum temperature yesterday: 27 °F (at 9:00 am)
Minimum temperature yesterday: 23 °F (at 11:00 pm)
Average temperature yesterday: 25 °F

High & Low Weather Summary for the Past Weeks

 TemperatureHumidityPressure
High39 °F (Mar 24, 5:00 pm)98% (Mar 28, 10:00 am)30.15 "Hg (Mar 28, 10:00 am)
Low18 °F (Mar 31, 12:00 am)55% (Mar 20, 12:00 pm)29.09 "Hg (Mar 16, 6:00 pm)
Average29 °F77%29.61 "Hg
* Reported Mar 16 1:00 am — Mar 31 2:00 am, Berlevåg. Weather by CustomWeather, © 2020

Note: Actual official high and low records may vary slightly from our data, if they occured in-between our weather recording intervals... More about our weather records

Berlevåg Weather History for the Previous 24 Hours

Scroll right to see more
 ConditionsComfort  
Time TempWeatherWind HumidityBarometerVisibility
2:00 am
Tue, Mar 31
20 °FCold.N/A75%29.81 "HgN/A
1:00 am20 °FCold.N/A79%29.85 "HgN/A
12:00 am18 °FCold.N/A77%29.88 "HgN/A
11:00 pm
Mon, Mar 30
23 °FCold.N/A72%29.90 "HgN/A
10:00 pm27 °FChilly.N/A59%29.92 "HgN/A
9:00 pm26 °FChilly.N/A59%29.93 "HgN/A
8:00 pm26 °FChilly.N/A78%29.94 "HgN/A
7:00 pm26 °FChilly.N/A70%29.95 "HgN/A
6:00 pm26 °FChilly.N/A68%29.96 "HgN/A
5:00 pm25 °FChilly.N/A80%29.95 "HgN/A
4:00 pm24 °FCold.N/A78%29.96 "HgN/A
3:00 pm25 °FChilly.N/A79%29.95 "HgN/A
2:00 pm24 °FCold.N/A84%29.93 "HgN/A
1:00 pm24 °FCold.N/A85%29.92 "HgN/A
12:00 pm26 °FChilly.N/A70%29.91 "HgN/A
11:00 am26 °FChilly.N/A69%29.89 "HgN/A
10:00 am27 °FChilly.N/A67%29.87 "HgN/A
9:00 am27 °FChilly.N/A61%29.85 "HgN/A
8:00 am24 °FCold.N/A83%29.85 "HgN/A
7:00 am24 °FCold.N/A81%29.85 "HgN/A
6:00 am24 °FCold.N/A82%29.84 "HgN/A
5:00 am25 °FChilly.N/A79%29.83 "HgN/A
4:00 am25 °FCold.N/A66%29.82 "HgN/A
3:00 am24 °FCold.N/A74%29.83 "HgN/A
Weather by CustomWeather, © 2020

See weather overview

Advertising